Torna al catalogo

IRIDIUM 33 DEB

AttivoPO
NORAD 34492·DEBRIS·🇺🇸 United States

Lanciato Sep 14, 1997 da Baikonur Cosmodrome

Loading…

Prossimi Passaggi (prossime 24 ore)

TLE

AggiornatoSource: Space-Track

Epoca: Sep 14, 2026, 09:10 UTC

1 34492U 97051GH  26257.38211053  .00009370  00000-0  30185-2 0  9997
2 34492  86.4706 222.7281 0181115  68.1738  83.0866 14.30203169889936

Traccia IRIDIUM 33 DEB in tempo reale con AllMySat

Download on the App Store